{"data":{"norad_id":64882,"intl_designator":"2025-155G","name":"2025-155G","alt_names":[],"object_type":"PAYLOAD","status":"ACTIVE","operator":null,"country":"TBD","launch_date":"2025-07-25","launch_site_code":"VOSTO","launch_vehicle":null,"mission":null,"orbit_class":"UNKNOWN","rcs_meters":null,"size_class":null,"mass_kg":null,"dimensions":null,"purposes":[],"wikipedia_slug":null,"has_3d_model":false,"image_url":null,"decayed_at":null,"tle_current":{"epoch":"2026-09-21T20:58:01.612128Z","epoch_age_seconds":52587,"freshness":"FRESH","line1":"1 64882U 25155G   26264.87362977  .00006308  00000+0  21324-3 0  9996","line2":"2 64882  97.4699 233.8792 0006782 178.1526 181.9741 15.30984527 95549","mean_motion":15.30984527,"eccentricity":0.0006782,"inclination_deg":97.4699,"raan_deg":233.8792,"arg_perigee_deg":178.1526,"mean_anomaly_deg":181.9741,"bstar":0.00021324,"rev_number":9554,"period_min":94.057123021466,"perigee_km":468.22725816133,"apogee_km":477.51996895756,"semimajor_km":6851.0106135594,"source":"CELESTRAK","updated_at":"2026-09-22T09:00:30.014796Z"}}}